Theta_e
305 304 304 304 304 303 303 303 303 303 303 302 302 302 302 301 301 301 301 301 301 300 300 300 299 299 298 297 297 296 296 295 295 295 295 295 295 295 295 295 296 296 296 296 296 296 296 296 296 296 296 296 295 295 294 293 293 292 291 291 291 291 292 293 293 294 294 294 294 295 295 295 295 295 296 296 296 296 296 296 296 295 296 296 296 296
304 304 303 303 303 303 303 303 302 302 302 302 302 301 301 301 301 301 301 301 300 300 300 300 300 299 299 298 297 297 296 296 295 295 295 295 295 295 295 296 296 296 297 297 297 297 297 296 296 295 295 294 293 292 291 290 289 289 288 289 289 290 291 292 292 293 293 294 294 294 294 294 294 294 295 295 295 295 295 295 295 295 295 295 295 296
303 303 303 303 302 302 302 302 302 302 302 302 301 301 301 301 301 300 300 300 300 300 300 300 300 299 299 299 298 297 297 296 296 296 296 296 296 296 296 296 296 297 297 297 297 296 296 295 295 294 292 291 290 289 288 287 287 287 287 288 289 290 291 291 291 292 292 293 293 293 293 293 293 293 293 294 294 294 294 295 295 295 295 295 294 294
303 302 302 302 302 301 301 301 301 301 301 301 301 301 300 300 300 300 300 300 300 300 300 300 299 299 299 299 298 298 297 297 297 296 296 296 296 296 296 296 296 296 296 296 296 295 294 293 292 292 291 290 289 288 287 287 287 288 288 289 289 290 291 291 291 291 292 292 291 291 291 291 291 291 292 292 292 293 293 293 293 294 294 293 293 293
302 302 301 301 301 301 301 301 301 301 300 300 300 300 300 300 300 300 299 299 299 299 299 299 299 298 298 298 298 297 297 297 297 296 296 296 296 295 295 295 295 294 294 294 293 293 292 291 291 290 289 289 288 288 288 288 288 288 289 289 289 290 291 291 291 291 291 291 291 290 290 290 290 290 290 290 290 291 291 291 291 292 292 291 291 291
301 301 301 300 300 300 300 300 300 300 300 300 300 300 299 299 299 299 299 299 298 298 298 298 298 297 297 297 297 296 296 296 296 296 295 295 294 294 294 293 293 292 292 292 291 291 290 290 290 289 289 288 288 287 287 287 287 288 288 289 289 289 290 290 291 291 290 290 290 290 290 290 289 289 289 289 289 289 289 289 289 290 290 290 290 290
300 300 300 300 300 300 299 299 299 299 299 299 299 299 298 298 298 298 298 298 297 297 297 297 296 296 296 295 295 295 295 294 294 294 294 293 293 292 291 291 291 290 290 290 290 289 289 289 289 288 288 287 287 287 286 286 286 287 287 288 288 288 289 289 290 290 290 289 289 289 289 289 288 288 288 288 288 288 288 288 288 288 288 289 289 289
300 300 299 299 299 299 299 298 298 298 298 298 298 297 297 297 297 297 296 296 296 296 295 295 295 294 294 294 294 293 293 293 292 292 292 291 291 290 290 290 289 289 289 289 289 288 288 288 287 287 287 286 286 286 285 285 285 286 286 286 287 287 287 288 288 289 289 288 288 288 288 287 287 287 287 287 287 287 287 287 288 288 288 288 288 288
299 299 299 298 298 298 298 298 297 297 297 297 296 296 296 295 295 295 294 294 294 294 293 293 293 292 292 292 292 292 292 291 291 290 290 290 289 289 289 289 288 288 288 288 287 287 287 286 286 286 286 285 285 285 285 285 285 285 285 285 285 286 286 287 287 287 287 287 287 287 287 287 287 287 287 287 287 287 287 287 288 288 288 288 288 289
299 298 298 298 297 297 297 296 296 296 295 295 294 294 294 294 293 293 292 292 292 292 292 292 291 291 291 290 290 290 290 290 290 289 289 288 288 288 288 288 287 287 287 287 286 286 286 286 286 285 285 285 285 285 285 285 285 285 285 285 285 285 285 286 286 286 286 286 286 286 287 287 287 287 287 287 287 287 288 288 288 288 288 288 289 289
298 297 297 296 296 295 295 295 294 294 293 293 292 292 292 291 291 291 291 291 290 290 290 290 290 290 289 289 289 288 288 288 288 288 288 287 287 287 287 286 286 286 286 286 286 286 286 285 285 285 285 285 285 285 285 285 285 285 285 285 285 285 285 285 286 286 286 286 286 286 287 287 287 287 287 287 287 288 288 288 288 288 289 289 289 289
296 296 295 294 294 293 293 293 292 292 291 291 291 290 290 290 290 290 290 289 289 289 289 289 289 288 288 288 288 287 287 287 287 287 286 286 286 286 286 286 286 286 286 285 285 285 285 285 285 285 285 285 285 285 285 285 285 285 285 285 285 285 286 286 286 286 286 286 287 287 287 287 287 287 287 287 288 288 288 288 288 289 289 289 289 289
294 293 293 292 291 291 291 291 290 290 290 290 290 290 289 289 289 289 289 289 288 288 288 288 287 287 287 287 287 287 286 286 286 286 286 286 286 286 286 285 285 285 285 285 285 285 285 285 285 285 285 285 285 285 285 285 285 285 285 286 286 286 286 286 286 286 287 287 287 287 287 287 287 287 288 288 288 288 288 288 289 289 289 289 289 289
291 291 290 290 289 289 289 289 289 289 289 289 288 288 288 288 288 288 288 288 288 287 287 287 287 287 287 286 286 286 286 286 286 286 286 286 286 285 285 285 285 285 285 285 285 285 285 285 285 285 285 285 285 285 286 286 286 286 286 286 286 286 286 286 287 287 287 287 287 287 287 287 288 288 288 288 288 288 288 288 289 289 289 289 289 289
289 288 288 288 288 288 288 288 288 288 288 288 287 288 288 287 287 287 287 287 287 287 287 287 286 286 286 286 286 286 286 286 286 286 286 286 285 285 285 285 285 285 285 285 285 285 285 285 285 285 285 286 286 286 286 286 286 286 286 286 286 286 287 287 287 287 287 287 287 287 287 288 288 288 288 288 288 288 289 289 289 289 289 289 289 289
287 287 287 287 287 286 287 287 287 287 287 287 287 287 287 287 287 287 287 287 287 286 286 286 286 286 286 286 286 286 285 285 285 285 285 285 285 285 285 285 285 285 285 284 284 284 285 285 285 286 286 286 286 286 286 286 286 286 286 286 287 287 287 287 287 287 287 287 287 287 288 288 288 288 288 288 288 289 289 289 289 289 289 289 289 289
287 286 286 286 286 286 286 286 286 286 286 286 286 286 286 286 286 286 286 286 286 286 286 285 285 285 285 285 285 285 285 285 285 285 285 285 285 284 284 284 284 284 284 284 284 285 285 286 286 286 286 287 287 287 287 287 287 287 287 287 287 287 287 287 287 287 287 287 287 288 288 288 288 288 288 289 289 289 289 289 289 289 289 289 289 289
286 286 286 286 285 285 285 285 285 285 285 285 285 285 286 286 285 285 285 285 285 285 285 285 284 284 284 284 284 284 284 284 284 284 284 284 284 284 284 284 284 284 284 284 285 285 286 286 286 287 287 287 287 287 287 287 287 287 287 287 287 287 287 287 287 287 287 287 288 288 288 288 288 288 289 289 289 289 289 289 289 289 289 289 289 289
286 286 286 285 285 285 285 285 285 285 285 285 285 285 285 285 285 285 284 284 284 284 284 284 284 284 284 284 284 283 283 284 284 284 284 284 284 284 284 284 284 284 284 285 285 286 286 286 287 287 287 287 287 287 287 287 287 287 287 287 287 287 287 287 287 287 288 288 288 288 288 288 288 289 289 289 289 289 289 289 289 289 290 290 290 290
286 286 285 285 285 285 285 285 285 285 285 285 285 284 284 284 284 284 284 284 284 284 284 284 284 284 284 283 283 283 283 283 284 284 284 284 284 284 284 284 284 284 285 285 286 286 286 287 287 287 287 287 288 288 288 288 287 287 287 287 287 287 287 287 288 288 288 288 288 288 288 289 289 289 289 289 289 289 289 289 289 290 290 290 290 290
285 285 285 285 285 285 285 284 285 285 284 284 284 284 284 284 284 284 284 284 284 284 284 284 284 283 283 283 283 283 283 283 284 284 284 284 284 284 285 285 285 285 285 286 286 286 287 287 287 287 287 288 288 288 288 288 288 288 288 288 287 288 288 288 288 288 288 288 288 288 289 289 289 289 289 289 289 289 289 289 290 290 290 290 290 290
285 285 284 284 284 284 284 284 284 284 284 284 284 284 284 284 284 284 284 284 284 284 284 284 283 283 283 283 283 283 283 283 283 284 284 285 285 285 285 285 285 286 286 286 286 287 287 287 287 287 288 288 288 288 288 288 288 288 288 288 288 288 288 288 288 288 288 288 288 289 289 289 289 289 289 289 289 289 289 289 289 290 290 290 290 290
285 284 284 284 284 284 284 284 284 284 284 284 284 284 284 284 284 284 284 284 283 283 283 283 283 283 283 283 283 282 283 283 284 284 285 285 285 285 285 286 286 286 287 287 287 287 287 287 287 287 288 288 288 288 288 288 288 288 288 288 288 288 288 288 288 288 288 288 288 288 289 289 289 289 289 289 289 289 289 289 289 290 290 290 290 290
285 284 284 284 284 284 284 284 284 284 284 284 284 284 283 283 283 283 283 283 283 283 283 283 283 283 283 283 282 282 283 283 284 284 285 285 285 286 286 286 286 287 287 287 287 287 287 287 287 288 288 288 288 288 288 288 288 288 288 288 288 288 288 288 288 288 288 288 288 288 288 288 289 289 289 289 289 289 289 289 289 290 290 290 290 290
285 284 284 284 284 284 284 284 284 284 284 284 283 283 283 283 283 283 283 283 283 283 283 283 283 283 283 282 282 283 283 284 284 285 285 285 286 286 286 286 287 287 287 287 287 287 287 287 287 288 288 288 288 288 288 288 288 288 288 288 288 288 288 288 288 288 288 288 288 288 288 288 288 289 289 289 289 289 289 289 289 290 290 290 290 290
285 284 284 284 284 284 284 284 284 284 283 283 283 283 283 283 283 282 282 282 282 282 282 282 282 282 282 282 283 283 283 284 284 285 285 285 286 286 286 286 287 287 287 287 287 287 287 287 287 287 288 288 288 288 288 288 288 288 288 288 288 288 288 288 288 288 288 288 288 288 288 288 288 289 289 289 289 289 289 289 289 289 290 290 290 290
284 284 284 284 284 284 284 284 284 284 283 283 282 282 282 282 282 282 282 282 282 282 282 282 282 282 282 282 283 283 284 284 285 285 285 285 286 286 286 286 287 287 287 288 287 287 287 287 287 288 288 288 288 288 288 288 288 288 288 288 288 288 288 288 288 288 288 288 288 288 288 288 289 289 289 289 289 289 289 289 289 289 290 290 290 290
284 284 284 284 284 284 284 284 284 284 283 283 282 282 282 282 282 282 282 282 282 281 281 282 281 281 282 282 283 283 284 285 285 285 286 285 285 286 286 286 287 287 288 288 288 287 287 288 288 288 288 288 288 288 288 288 288 287 287 288 288 288 288 288 288 288 288 288 288 288 288 289 289 289 289 289 289 289 289 289 289 289 289 290 290 290
284 283 283 284 284 284 284 284 284 284 283 283 282 282 282 282 282 282 282 282 282 281 281 281 281 281 282 282 283 284 284 285 285 285 286 285 285 286 286 286 287 287 287 288 288 288 287 288 288 288 288 288 288 288 288 288 288 288 288 288 288 288 288 288 288 288 288 288 288 288 289 289 289 289 289 289 289 289 289 289 289 289 289 289 290 290
283 283 283 283 284 284 284 284 284 283 283 283 282 282 282 282 282 282 282 282 282 282 281 281 281 282 282 283 283 284 285 285 285 285 285 285 285 286 286 287 287 287 287 288 288 288 288 288 288 288 288 288 288 288 288 288 288 288 288 288 288 288 288 288 288 288 288 288 288 289 289 289 289 289 289 289 289 289 289 289 289 289 289 290 290 290
283 283 283 283 283 283 283 283 283 283 283 283 282 282 282 282 282 282 282 282 282 282 282 282 282 282 282 283 283 284 285 285 285 285 285 285 285 286 286 286 287 287 287 287 287 288 288 288 288 288 288 288 288 288 288 288 288 288 288 288 288 288 288 288 288 288 288 288 289 289 289 289 289 289 289 289 289 289 289 289 289 289 289 290 290 290
283 283 283 283 283 283 283 283 283 283 283 283 282 282 282 282 282 282 282 282 282 282 282 282 282 282 283 284 284 284 285 285 285 285 285 285 286 286 286 286 287 287 287 287 287 286 287 288 288 288 288 288 287 287 287 287 288 288 288 288 288 288 288 288 288 288 288 289 289 289 289 289 289 289 289 289 289 289 289 290 290 289 289 289 290 290
283 283 283 283 283 283 283 283 283 283 283 283 282 282 282 282 282 282 282 282 282 282 282 282 283 283 284 284 285 285 285 285 285 285 285 285 286 286 286 286 286 287 287 287 287 287 287 288 288 289 289 288 288 288 288 288 288 288 288 288 288 288 288 288 288 288 288 288 288 288 289 289 289 289 289 289 289 289 289 289 289 289 289 289 289 290
283 283 283 283 283 283 283 283 283 283 283 283 283 282 282 282 282 282 282 282 282 282 282 283 283 284 284 285 285 285 285 285 285 285 285 285 285 286 286 286 286 286 287 287 287 287 287 288 288 289 289 289 289 289 289 288 288 288 288 288 288 288 288 288 288 288 288 288 288 288 288 288 288 288 289 289 289 289 289 289 289 289 289 289 289 289
283 283 283 283 283 283 283 283 283 283 283 283 283 282 282 282 282 282 282 282 282 282 283 283 284 284 285 285 285 285 285 285 285 285 285 285 285 286 286 286 286 287 287 287 287 287 288 288 288 288 289 289 289 289 289 289 288 288 288 288 288 288 288 288 288 288 288 288 288 288 288 288 288 288 288 288 288 288 288 288 288 288 288 288 288 288
283 283 283 283 283 283 283 283 283 283 283 283 283 282 282 282 282 282 282 282 282 283 284 284 284 285 285 285 285 285 285 285 285 285 285 285 285 286 286 286 287 286 286 287 287 287 287 288 288 288 288 289 289 289 289 289 289 289 288 288 288 288 288 288 288 288 288 288 288 288 288 288 288 287 287 287 287 287 287 288 288 288 288 288 288 288
283 283 283 283 283 283 283 283 283 283 283 283 282 282 282 282 282 282 282 283 283 284 284 285 285 285 285 285 285 285 285 285 285 285 285 285 286 286 286 286 286 286 286 286 286 286 287 287 287 288 288 288 289 289 289 289 289 289 289 289 289 288 288 288 288 288 288 288 288 288 287 287 287 287 287 287 287 287 287 287 287 287 287 287 287 287
283 283 283 283 283 283 283 283 283 283 283 282 282 282 282 282 282 282 283 283 284 284 285 285 285 285 285 285 285 285 285 285 285 285 285 285 286 286 286 286 286 286 286 286 286 286 286 286 287 287 288 288 288 288 289 289 289 289 289 289 289 289 288 288 288 288 288 288 288 287 287 287 287 287 287 287 287 287 287 287 286 286 286 287 287 287
283 283 283 283 283 283 283 283 283 283 282 282 282 282 282 282 282 282 283 284 284 284 285 285 285 285 285 285 285 285 285 285 285 285 285 285 285 285 286 286 286 286 286 286 286 286 286 286 286 286 287 288 288 288 288 289 289 289 289 289 289 289 289 288 288 288 288 287 287 287 287 287 286 286 286 286 286 286 286 286 286 286 286 286 286 287
283 283 283 283 283 283 283 283 283 283 282 282 282 282 282 282 282 283 283 284 284 285 285 285 285 285 285 285 285 285 285 285 285 285 285 285 285 285 286 286 286 286 286 286 286 286 286 286 286 286 286 287 288 288 288 288 288 288 289 289 289 289 289 288 288 288 287 287 287 287 287 287 286 286 286 286 286 286 286 286 286 286 286 286 286 286
283 283 283 283 283 283 283 283 283 283 282 282 282 282 282 282 282 283 284 284 284 285 285 285 285 285 285 285 285 285 285 285 285 285 285 285 285 285 286 286 286 286 286 286 286 286 286 286 286 286 286 286 287 287 288 288 288 288 288 288 288 288 288 288 288 288 287 287 287 287 287 286 286 286 286 286 286 286 286 286 286 286 286 286 286 286
283 283 283 283 283 283 283 283 283 283 282 282 282 282 282 282 283 283 284 284 284 285 285 285 285 285 285 285 285 285 285 285 285 285 285 285 285 286 286 286 286 286 286 286 286 286 286 286 286 286 286 286 286 286 287 287 287 287 288 288 288 288 288 288 288 287 287 287 287 287 287 286 286 286 286 287 287 286 286 286 287 287 287 287 287 287
283 283 283 283 283 283 283 283 283 282 282 282 282 282 282 283 283 284 284 284 285 285 285 285 285 285 285 285 285 285 285 285 285 285 285 285 286 286 286 286 286 286 286 286 286 286 285 286 286 286 286 286 285 286 286 287 287 287 287 287 287 287 288 288 287 287 287 287 287 287 286 286 286 286 287 287 287 287 287 287 287 287 287 287 287 287
283 283 283 283 283 283 283 283 282 282 282 282 282 282 282 283 283 284 284 285 285 285 285 285 285 285 285 285 285 285 285 285 285 285 285 286 286 286 285 285 285 285 286 285 285 285 285 285 285 285 285 285 285 285 286 286 287 287 287 287 286 287 287 287 287 287 287 287 287 286 286 286 286 286 286 287 287 287 287 287 287 287 287 287 287 287
283 283 283 283 283 283 283 283 282 282 282 282 282 282 283 283 284 284 285 285 285 285 285 285 285 285 285 285 285 285 286 286 285 285 285 285 285 285 285 285 285 285 285 285 285 285 285 285 285 285 284 284 285 285 285 286 286 286 287 286 286 286 286 287 287 287 287 287 286 286 286 286 286 286 287 287 287 287 287 287 288 288 287 287 287 287
283 283 283 283 283 283 283 283 282 282 282 282 282 283 283 284 284 284 285 285 285 285 285 285 285 285 285 285 285 285 285 285 285 285 285 285 285 285 285 285 285 285 285 285 285 285 285 285 284 284 284 284 284 285 285 285 285 286 286 286 286 286 286 286 286 286 286 286 286 286 286 286 286 286 286 287 287 287 287 287 287 288 288 287 287 287
283 283 283 283 283 283 283 283 283 282 282 282 283 283 284 284 284 284 285 285 285 285 284 284 284 285 285 285 285 285 285 285 285 285 285 285 285 285 285 285 285 285 285 284 284 285 285 285 284 284 284 284 284 285 285 285 285 285 285 285 285 286 286 286 286 286 286 286 286 286 286 286 286 286 286 286 287 287 287 287 287 287 287 287 287 287
283 283 283 283 283 283 282 282 283 283 283 283 283 284 284 284 284 285 285 285 285 284 284 284 284 284 285 284 285 285 285 285 285 285 286 286 286 286 285 285 285 285 285 285 285 284 284 284 284 284 284 284 284 284 285 285 285 285 285 285 285 285 286 286 286 286 286 286 286 286 286 285 285 285 286 286 287 287 287 287 287 287 287 287 287 287
283 283 283 283 283 283 283 283 283 283 283 283 283 284 284 284 284 285 285 285 284 284 284 284 284 284 285 285 285 285 285 285 285 286 286 286 286 286 286 286 286 285 285 285 285 285 285 285 285 285 285 284 284 284 285 285 285 284 284 285 285 285 285 286 286 286 286 286 286 286 285 285 285 285 285 285 286 287 287 287 287 287 287 287 287 287
283 283 283 283 283 283 283 283 283 283 283 284 284 284 284 284 284 284 284 284 284 284 284 284 284 284 285 285 285 285 285 285 286 286 285 285 285 285 285 285 285 285 286 286 285 285 285 285 285 285 285 285 285 284 284 284 284 284 284 285 285 285 285 285 285 285 285 285 285 285 285 286 285 285 285 285 285 286 287 287 287 287 287 287 287 287
283 283 283 284 284 284 284 284 284 284 284 284 284 284 284 284 284 284 284 284 284 284 284 284 284 284 284 285 285 285 285 285 285 285 285 285 285 285 285 285 285 285 285 285 285 285 285 284 284 284 285 285 284 284 284 284 284 284 284 284 284 284 284 285 285 285 285 285 285 285 285 285 285 285 285 285 285 285 286 287 287 287 287 287 287 287
Wind_Speed
12 12 12 12 12 12 11 10 9 8 8 8 8 8 7 7 7 6 6 6 6 6 5 5 6 6 6 7 8 9 10 11 13 14 15 16 17 18 19 20 21 22 22 22 22 22 21 20 19 18 17 17 16 16 16 16 15 15 14 13 12 12 11 11 11 11 11 11 11 11 12 12 13 14 16 16 17 17 17 17 18 18 18 19 19 19
10 10 10 10 10 9 9 8 7 7 6 7 7 7 7 6 6 5 5 5 5 5 5 5 6 6 7 8 8 10 11 12 13 14 16 17 18 19 20 20 21 21 21 20 20 19 18 18 17 16 16 15 15 15 15 14 13 12 12 11 10 10 11 11 11 11 11 11 12 13 14 15 16 17 17 18 18 17 17 17 17 18 18 19 19 19
8 8 8 8 7 6 6 7 7 6 6 6 6 6 6 6 6 5 5 5 5 5 5 6 6 6 7 8 8 9 10 11 13 14 15 16 17 17 18 18 18 18 18 18 17 17 17 16 16 15 15 15 14 14 13 12 12 11 11 11 11 11 11 11 11 11 11 12 13 14 15 16 17 18 18 19 19 19 18 18 18 19 18 18 18 18
6 6 6 6 6 5 5 6 6 6 6 5 5 5 6 6 6 6 6 6 6 6 6 6 6 7 7 8 8 9 10 10 11 12 13 14 15 15 16 16 17 17 16 16 16 16 15 15 15 15 15 15 14 13 12 12 11 11 11 12 12 11 11 11 11 11 12 13 14 14 15 15 16 16 17 17 18 19 20 20 21 20 20 18 17 16
5 5 5 5 5 5 5 5 6 6 5 5 5 5 6 6 6 7 7 7 7 7 7 7 7 7 8 8 9 9 9 10 11 12 12 13 14 14 15 15 16 16 16 16 15 15 15 15 15 15 15 15 15 14 13 13 12 12 13 13 13 12 11 12 12 13 13 14 14 14 14 14 15 15 15 15 16 18 19 20 20 21 20 19 17 15
4 4 5 5 4 4 5 5 6 6 6 6 6 6 6 7 7 7 8 8 8 8 8 8 8 8 8 9 9 10 10 11 11 12 12 13 14 14 15 15 15 15 15 15 15 15 15 15 15 15 15 16 16 16 15 14 14 14 14 14 14 14 13 14 14 15 15 15 15 15 15 15 15 15 15 15 15 15 16 16 17 17 18 17 17 15
4 4 5 5 5 5 5 6 6 6 6 7 7 7 7 8 8 8 8 8 9 9 10 9 9 9 9 9 10 10 11 11 12 12 13 13 13 14 14 15 15 15 15 15 15 15 15 15 15 16 16 16 16 16 16 16 15 15 15 16 16 15 15 15 16 16 16 16 15 15 15 15 15 15 15 15 14 14 13 13 13 13 14 14 14 13
5 5 5 5 5 6 7 7 7 7 7 7 8 8 8 9 9 9 9 9 9 10 10 10 10 10 10 10 10 11 11 11 12 12 12 13 13 14 14 15 15 15 15 16 16 16 16 16 16 16 16 17 17 17 17 17 17 17 17 17 17 17 16 16 16 16 16 16 16 15 15 15 15 14 14 14 13 13 12 11 11 10 11 11 11 10
5 6 6 6 6 7 7 8 8 8 7 8 8 9 9 9 9 9 9 9 9 9 9 10 10 10 10 10 11 11 11 12 12 12 12 13 13 14 14 15 15 16 16 17 17 17 17 17 17 17 17 17 17 17 17 17 18 18 18 18 17 17 17 16 16 16 16 16 15 15 15 14 14 13 13 13 12 12 11 10 10 9 9 9 8 8
7 7 7 8 8 8 8 8 9 9 8 8 9 9 9 9 10 10 10 9 9 9 10 10 10 10 11 11 11 11 12 12 12 13 13 14 14 15 15 16 16 16 17 18 18 18 18 18 18 17 17 17 17 17 17 17 17 17 17 17 16 16 16 15 15 15 15 15 15 14 14 13 13 12 12 12 11 11 10 10 9 9 9 8 8 8
8 8 7 8 9 9 9 8 8 9 9 9 9 9 9 9 9 9 9 9 9 10 10 10 10 10 11 11 12 12 12 13 13 14 14 15 15 16 16 17 17 17 18 19 19 20 20 19 19 18 17 17 17 16 16 15 15 15 14 14 14 14 14 14 14 14 14 14 13 13 13 12 12 11 11 11 10 10 10 9 9 9 10 9 9 9
8 8 8 8 8 8 8 8 8 8 9 9 9 9 9 9 9 9 9 10 10 10 10 11 11 11 11 12 13 13 14 14 15 15 15 16 16 17 17 17 18 18 19 19 20 21 21 21 20 19 18 16 15 14 13 13 12 12 12 12 12 12 12 12 13 13 12 12 12 12 11 11 11 11 10 10 10 10 9 10 10 10 11 11 11 11
8 8 8 8 8 7 7 7 8 8 8 8 8 8 9 9 10 10 10 11 11 12 12 12 12 12 12 13 13 14 15 15 16 16 16 17 17 17 17 17 18 18 19 19 20 21 21 21 20 19 17 15 13 12 11 10 10 10 10 10 10 10 11 11 11 11 11 11 11 10 10 10 10 10 10 10 10 10 10 10 11 11 12 12 12 11
7 7 7 7 7 7 7 7 7 8 8 8 9 9 10 11 11 11 11 12 12 13 13 13 13 14 14 14 14 15 16 16 17 17 17 17 17 17 17 18 18 18 19 19 20 20 20 20 19 18 15 13 11 9 9 8 8 8 9 9 9 9 10 10 10 10 10 10 10 9 9 9 9 10 10 10 10 10 10 11 11 12 12 12 12 11
6 7 7 7 7 7 7 7 8 8 9 9 10 10 11 11 12 12 12 13 13 14 14 14 14 15 15 15 15 16 16 17 18 18 18 17 17 17 17 18 18 19 19 19 19 19 19 18 17 15 13 11 9 8 8 8 8 8 8 9 9 9 9 9 9 9 9 9 9 9 9 9 9 9 10 10 10 11 11 11 11 12 12 11 11 11
7 7 7 7 7 7 8 8 8 9 10 10 11 11 11 12 13 13 13 14 15 15 16 16 16 16 15 15 15 16 16 17 17 18 18 17 16 16 17 17 18 18 18 18 18 17 17 16 15 13 11 10 9 8 8 8 8 8 8 8 9 9 9 9 9 8 8 8 8 8 8 9 9 10 10 10 11 11 11 11 12 12 11 11 11 11
7 7 7 8 8 8 8 9 9 10 11 11 12 12 12 13 13 14 14 15 16 16 17 17 17 17 16 15 15 15 15 16 17 17 17 17 16 15 16 16 17 17 17 16 16 15 15 14 13 11 10 9 9 8 8 8 8 8 8 8 8 8 8 8 8 8 8 8 8 8 9 9 10 10 11 11 11 11 12 12 12 12 11 11 11 11
7 8 8 8 9 9 9 10 10 10 11 12 12 13 13 14 14 14 15 15 16 16 16 16 16 16 16 15 15 15 15 15 16 17 17 16 15 14 14 15 15 15 15 14 14 14 13 12 11 11 10 9 9 8 8 7 7 7 7 7 8 8 8 8 8 8 8 8 9 9 9 10 10 11 11 11 12 12 12 12 12 12 12 12 12 11
8 8 8 9 9 10 10 10 10 11 11 12 13 13 13 14 14 14 14 14 15 15 15 15 15 15 15 14 14 15 15 15 15 16 16 15 13 13 13 13 13 13 13 13 13 12 12 12 11 10 10 9 9 8 8 7 7 7 7 7 7 7 8 8 8 8 8 9 9 10 10 11 11 11 12 12 12 12 12 12 12 12 12 12 12 12
9 9 8 9 9 10 10 10 11 11 12 13 13 13 14 14 14 14 14 14 14 14 14 14 14 14 13 13 13 14 14 14 15 16 16 14 13 12 12 11 11 11 11 11 12 12 12 11 11 11 10 10 9 8 7 7 7 7 7 7 7 8 8 8 8 9 9 10 10 10 11 11 12 12 12 12 13 13 13 13 13 13 13 13 13 13
9 9 9 9 9 10 10 11 11 12 12 13 13 13 13 13 13 13 13 13 13 13 13 13 13 13 13 13 13 13 14 14 15 15 15 14 12 10 10 10 10 10 10 10 11 11 12 12 11 11 11 10 9 8 7 7 7 7 7 7 8 8 8 9 9 10 10 10 11 11 12 12 13 13 13 13 14 14 14 14 14 14 14 14 14 14
10 10 9 9 9 10 10 11 12 12 12 13 13 13 13 13 13 13 13 13 13 14 14 13 13 13 12 12 13 13 14 14 14 15 15 14 11 10 10 10 10 10 10 10 10 11 12 12 12 12 11 10 9 8 8 7 7 7 7 8 8 8 9 9 10 10 11 11 12 12 13 13 14 14 14 15 15 15 15 15 15 15 15 16 16 16
11 11 10 10 10 11 11 12 13 13 13 13 13 13 14 14 14 15 15 14 14 14 14 14 13 12 12 12 12 12 12 12 13 14 14 14 12 11 10 10 10 10 10 9 10 10 11 12 13 13 12 11 9 9 8 8 8 8 8 8 9 9 10 10 11 12 12 13 13 13 14 14 15 15 16 16 16 16 16 17 17 17 17 17 17 17
11 11 11 11 11 12 12 13 13 14 14 14 14 14 14 15 15 15 15 15 15 15 15 15 15 14 14 13 13 12 11 11 12 13 14 14 13 12 11 11 11 10 10 9 9 10 11 12 13 13 12 11 10 9 9 8 9 9 9 9 10 10 11 12 12 13 13 14 14 15 15 16 16 16 17 17 17 17 17 17 18 18 18 18 18 18
11 11 11 11 12 12 13 13 14 14 14 14 14 14 14 15 15 15 15 15 15 15 15 16 16 16 16 14 13 12 11 10 11 12 13 13 13 12 12 12 12 11 10 9 9 10 11 12 13 13 12 11 10 10 9 9 10 10 10 11 11 12 12 12 13 14 14 15 15 16 16 17 17 17 18 18 18 18 18 19 19 19 19 19 19 20
11 11 11 12 12 13 13 13 13 13 13 13 13 14 14 15 15 15 15 15 14 15 15 16 16 16 16 15 14 13 11 10 10 11 13 13 13 12 12 12 13 12 11 9 9 10 11 12 13 13 13 12 11 11 11 11 11 11 11 12 12 13 13 14 14 15 15 16 17 17 17 18 18 18 18 19 19 19 19 20 20 20 21 21 21 21
12 12 12 13 13 13 13 13 13 12 11 11 12 13 14 15 15 15 14 14 14 14 15 15 16 16 15 15 14 13 12 11 10 11 12 13 13 14 14 13 13 13 12 10 9 10 11 11 12 13 13 12 12 12 12 12 12 13 13 13 14 14 14 15 15 16 17 17 17 18 18 18 19 19 19 20 20 20 21 21 21 22 22 22 22 22
13 13 13 14 14 14 14 14 13 12 11 10 11 12 13 14 14 14 13 13 13 13 14 14 15 15 15 15 15 13 12 11 11 11 12 13 14 15 15 14 14 14 13 11 9 9 10 11 12 12 12 12 12 13 13 13 13 14 14 15 15 15 15 16 16 17 17 18 18 18 19 19 19 20 20 21 21 22 22 23 23 23 23 24 24 24
13 13 14 14 14 14 14 14 13 12 11 11 11 11 12 13 13 13 13 13 13 13 13 13 14 14 14 15 15 14 12 12 11 11 12 14 15 16 15 15 14 14 14 12 10 8 9 10 11 11 11 12 12 12 13 13 14 14 15 15 15 15 16 16 16 17 17 18 18 19 20 20 21 21 22 22 23 23 23 24 24 24 25 25 25 25
13 13 13 14 14 14 15 14 14 13 12 12 11 11 12 12 12 12 13 13 13 13 13 13 13 13 13 14 15 14 13 11 11 12 13 15 17 17 16 16 15 14 14 13 12 10 8 8 9 9 9 9 10 10 11 12 13 13 14 14 14 15 15 16 16 17 18 19 19 20 20 21 21 22 22 23 23 23 23 24 24 24 25 25 26 26
12 12 12 13 13 14 14 14 14 13 13 12 12 12 12 12 12 12 12 13 13 13 13 13 13 13 13 13 15 15 14 12 12 13 13 15 17 18 17 17 16 15 14 14 14 13 11 8 7 7 6 7 7 8 9 10 11 12 13 13 14 14 15 16 17 18 18 19 20 20 20 21 21 21 22 22 22 22 23 23 23 24 25 25 25 26
11 11 11 12 13 14 14 14 14 14 13 13 12 12 12 12 12 12 12 12 13 13 13 13 13 12 12 12 14 15 15 14 14 14 14 16 17 17 17 18 18 17 15 15 15 14 12 12 10 8 7 8 8 8 9 11 12 13 13 14 14 15 16 17 17 18 18 18 19 19 19 20 20 20 20 21 21 21 22 22 22 23 24 24 25 25
10 11 12 12 13 14 14 14 14 13 13 13 12 12 12 12 12 12 12 12 12 12 12 12 12 12 12 13 13 14 15 15 15 15 15 16 17 18 18 18 18 18 17 16 16 15 15 16 15 13 11 10 10 10 11 12 13 14 15 15 15 15 16 16 17 17 17 17 17 17 18 18 19 19 20 20 20 20 21 21 22 22 23 24 25 25
11 11 12 12 13 13 13 13 13 13 13 12 12 12 12 12 12 12 12 11 11 11 12 12 12 12 13 13 13 14 15 14 14 15 16 16 18 18 19 19 18 18 18 18 18 18 18 18 18 17 15 14 12 11 11 11 12 13 14 14 14 14 14 15 15 15 15 16 16 16 17 18 18 19 19 20 20 20 20 21 21 22 23 24 24 25
11 11 12 12 13 13 13 13 13 12 12 12 12 12 12 12 12 11 11 11 10 10 10 11 11 12 12 13 14 14 14 14 13 14 15 16 17 18 18 18 18 18 18 19 19 19 19 19 19 19 19 17 16 14 12 11 11 11 11 12 12 12 13 13 13 14 14 15 15 16 16 17 17 18 18 19 19 19 20 20 21 22 22 23 24 25
11 11 12 12 12 12 12 12 12 12 12 11 11 11 11 11 11 11 10 10 10 10 10 10 10 11 11 12 13 14 14 13 13 13 14 15 16 17 18 18 18 18 18 19 19 19 20 20 20 20 20 20 19 17 15 13 11 10 10 10 10 11 11 12 12 13 13 13 14 14 15 15 16 16 17 17 18 18 19 19 20 21 22 23 24 24
11 11 11 12 12 12 12 12 11 11 11 11 11 11 11 11 11 10 10 9 9 9 9 10 10 11 11 12 12 13 13 13 13 14 14 15 15 16 17 18 18 18 18 18 18 19 20 20 21 20 20 20 20 19 17 15 13 11 10 9 9 9 10 11 11 12 12 12 12 13 13 13 14 14 15 15 16 16 17 18 18 19 20 21 22 23
10 10 10 11 11 11 11 11 11 10 10 10 10 10 10 10 10 10 9 9 9 9 9 10 10 11 11 12 12 13 13 14 14 14 15 15 16 16 17 17 17 17 17 17 17 18 19 19 20 21 21 21 20 20 19 17 15 13 11 10 10 10 10 10 11 11 11 12 12 12 12 12 13 13 14 14 15 15 16 16 17 17 18 19 20 21
9 9 10 11 11 11 11 10 10 10 9 9 10 10 10 10 10 10 9 9 9 10 10 10 11 11 12 12 13 13 14 14 15 15 15 16 16 16 16 17 17 16 16 16 16 17 17 18 19 20 21 21 21 20 19 18 17 15 14 13 12 11 11 11 11 11 11 11 11 11 11 12 12 13 13 14 15 15 15 15 16 17 17 18 19 20
9 9 10 10 11 11 10 10 9 9 9 9 9 9 10 10 10 9 9 9 10 10 11 11 11 12 12 13 13 14 15 15 16 16 16 16 16 16 16 16 16 16 16 16 16 16 16 17 18 18 19 20 20 20 19 18 17 16 15 15 14 13 12 12 12 11 11 11 11 11 11 12 12 13 13 14 14 15 15 15 16 17 18 18 19 20
9 9 10 10 10 10 10 9 9 8 8 9 9 9 9 9 9 9 9 9 10 10 11 12 12 13 13 14 15 15 16 17 17 17 17 17 17 16 16 16 16 15 15 15 15 16 16 16 17 17 18 18 19 19 19 19 18 17 16 16 15 15 14 14 13 13 12 12 12 12 12 12 13 13 14 14 14 15 15 16 16 17 18 19 20 20
9 9 9 10 10 10 9 9 9 8 9 9 9 9 9 9 9 9 9 9 10 11 11 12 12 13 14 15 15 16 17 17 17 16 16 16 16 15 15 15 15 15 15 15 15 15 16 16 16 17 17 18 18 19 20 19 18 17 16 16 16 17 16 16 15 14 14 13 13 13 13 14 14 15 15 15 15 15 15 16 16 17 18 19 19 20
9 9 9 9 9 9 9 9 9 9 8 9 9 9 9 9 9 9 9 9 10 10 11 12 13 14 14 15 15 15 15 15 15 14 14 13 13 13 14 14 14 14 14 14 15 15 15 16 16 17 17 17 18 19 20 20 18 17 16 16 17 18 18 17 16 16 15 15 15 15 15 15 16 17 17 17 16 16 16 16 16 17 17 18 18 19
9 9 9 9 9 9 9 9 9 9 9 9 9 9 9 9 9 9 9 10 10 11 12 12 13 14 15 15 15 15 13 13 12 12 11 11 11 11 12 12 13 13 13 14 14 15 16 16 16 17 17 17 18 19 20 19 19 18 17 16 17 17 18 18 17 17 16 16 16 16 16 17 17 18 19 19 18 18 17 17 17 17 17 17 17 18
9 9 9 9 9 9 9 9 9 9 9 9 9 9 9 9 9 9 10 10 10 11 12 13 14 15 15 15 14 13 12 11 10 10 10 10 11 11 12 13 13 14 14 14 14 15 16 16 17 17 17 18 18 19 19 19 19 18 17 17 16 17 17 17 17 17 16 16 16 16 17 17 18 19 20 20 20 20 19 19 18 18 17 17 17 17
8 9 9 9 10 10 9 9 9 9 9 9 9 9 9 9 9 9 10 10 10 11 12 13 14 15 15 14 13 11 10 9 9 9 10 10 11 12 13 13 14 14 14 15 15 15 15 16 16 17 17 18 19 19 19 19 19 19 18 17 17 17 17 17 16 16 16 17 17 17 18 18 19 20 21 22 22 21 21 20 20 19 19 18 18 17
9 9 9 9 10 10 10 10 9 9 9 9 9 9 9 9 9 9 10 10 10 11 12 13 14 14 13 13 11 10 9 9 9 10 10 10 11 11 12 13 13 14 14 15 15 16 16 16 16 16 17 18 19 20 20 19 19 18 18 17 16 16 16 16 16 16 17 17 17 18 18 19 21 22 23 23 23 23 22 21 21 20 20 19 18 18
9 9 9 9 9 10 10 10 10 9 9 9 9 9 9 9 9 9 10 10 11 11 12 13 13 12 11 11 10 9 9 9 9 9 10 11 11 12 12 12 12 13 13 14 15 15 16 16 17 17 17 18 19 19 19 18 17 17 16 16 16 16 17 17 17 17 17 18 18 19 19 21 22 23 24 24 24 24 23 23 22 21 21 20 19 19
9 9 9 10 9 10 10 10 10 10 10 9 9 9 9 9 9 10 10 10 11 11 12 12 11 11 10 9 9 8 8 8 8 9 10 11 12 13 13 13 13 13 14 14 14 15 16 17 17 17 17 17 17 18 18 17 16 16 15 16 16 17 18 18 18 18 18 19 19 20 21 22 23 23 24 25 26 25 25 24 23 22 21 21 21 20
10 10 10 10 10 10 10 10 10 10 10 9 9 9 9 9 9 10 10 10 11 11 11 11 10 9 9 8 8 8 7 7 8 9 10 11 13 14 14 15 15 15 15 15 16 16 17 18 18 18 17 16 16 16 16 17 17 17 17 17 18 18 19 20 20 20 20 21 21 22 22 23 23 23 24 26 26 26 26 25 24 23 22 22 22 21
10 10 10 10 10 10 10 10 10 10 10 10 10 10 10 10 10 10 10 10 11 11 11 10 9 9 8 8 7 7 7 7 8 10 11 12 14 15 15 15 15 15 15 16 16 17 18 18 19 18 17 16 15 15 15 16 17 18 19 19 19 20 20 21 21 22 22 23 23 23 24 24 24 24 25 26 27 27 27 27 26 25 24 23 23 23
Wind_Direction
304 304 306 309 310 312 314 319 325 330 333 336 341 346 348 350 352 354 354 353 351 345 337 327 317 308 302 295 289 285 282 281 280 280 280 280 280 280 279 279 279 280 280 281 283 284 285 286 286 287 287 287 286 285 284 282 280 278 275 274 274 274 273 270 267 266 265 265 264 260 256 252 248 246 245 245 246 246 246 246 245 244 243 243 244 246
305 306 307 309 312 314 317 326 334 340 344 345 346 347 350 352 352 352 351 348 342 335 328 319 311 303 295 289 283 279 277 276 275 275 275 275 275 275 276 276 277 279 280 281 283 284 284 285 286 286 286 285 285 284 284 283 281 278 275 273 271 268 265 263 260 258 255 253 251 249 246 243 241 241 242 243 244 245 246 246 245 245 244 245 246 247
308 309 310 314 318 321 327 334 339 343 345 346 345 346 346 343 342 341 339 333 327 322 317 313 307 302 296 290 285 281 279 277 276 275 274 274 274 274 274 275 276 278 279 280 282 282 283 283 284 284 284 284 284 284 284 284 282 279 276 272 267 262 259 257 256 254 250 246 244 243 243 242 241 241 242 243 244 244 244 244 244 244 245 247 248 250
314 317 320 326 329 332 335 340 342 341 341 341 340 338 336 332 328 325 324 321 316 312 308 306 303 300 296 293 289 285 282 280 279 277 276 275 274 274 275 276 277 278 279 280 281 281 281 282 281 281 282 282 282 282 281 282 281 278 275 272 267 263 260 256 253 251 249 247 246 247 248 248 248 247 247 247 246 246 245 245 245 246 246 248 251 253
323 327 330 336 340 339 335 336 337 336 334 332 329 326 322 319 316 315 314 312 310 307 304 302 300 297 295 292 289 287 285 283 282 281 280 279 278 278 278 279 279 280 280 281 281 281 281 280 280 280 281 282 281 281 280 279 276 274 272 272 271 267 262 257 253 251 251 252 253 255 256 255 255 255 255 255 254 252 250 249 248 248 248 248 249 249
327 331 334 338 340 337 331 329 329 327 325 321 317 315 312 309 308 307 306 305 304 303 302 300 298 295 293 290 288 287 285 284 283 283 282 282 281 281 281 281 281 281 281 281 281 281 280 280 280 281 282 283 284 284 283 280 276 272 270 269 269 266 263 259 257 257 257 258 259 260 261 260 260 261 261 263 262 260 258 255 253 251 250 250 249 249
322 324 328 331 329 325 322 319 318 317 315 312 309 308 305 304 302 301 300 299 299 299 300 298 296 294 292 290 288 287 286 285 284 284 283 283 282 281 281 281 281 281 282 282 282 281 281 281 281 282 283 284 285 285 284 281 276 272 269 267 266 265 262 260 259 260 261 263 265 266 266 266 266 265 266 266 266 266 264 262 258 255 254 253 253 252
317 314 315 317 317 316 314 311 309 309 307 305 303 302 302 301 300 298 298 296 296 296 297 298 296 294 292 291 289 288 287 286 285 284 283 282 281 280 280 280 281 282 283 283 283 283 283 283 283 283 284 284 284 284 282 278 275 272 270 269 268 267 264 262 262 263 264 267 269 270 270 269 268 267 266 266 267 267 267 265 262 259 258 256 256 255
312 312 308 307 309 311 311 307 304 303 303 301 299 298 299 299 300 299 299 298 297 296 296 296 296 295 293 291 290 289 288 287 286 284 284 282 281 281 281 281 282 283 284 285 285 285 285 285 285 285 285 285 285 283 281 277 274 272 270 270 270 269 268 266 265 265 267 268 269 269 269 268 267 266 266 266 267 267 268 267 267 265 264 262 260 259
305 309 309 306 305 305 306 302 300 301 301 299 297 296 296 298 299 300 300 299 298 297 295 294 293 292 292 292 291 290 289 288 287 287 286 285 284 284 284 285 286 287 288 288 289 288 289 289 289 289 289 288 287 284 281 278 275 273 271 270 269 267 266 265 264 264 264 265 266 266 266 265 265 264 265 265 266 267 269 270 271 271 270 267 264 261
304 305 307 306 304 303 303 300 299 300 301 301 299 299 298 297 297 298 297 295 294 294 293 291 290 289 289 290 290 289 289 288 289 289 289 289 289 289 290 290 291 292 292 293 293 293 293 293 294 294 294 293 291 287 283 279 276 273 270 267 264 262 260 259 258 259 259 260 261 262 262 262 262 262 263 264 266 267 269 270 271 271 270 267 263 260
303 304 305 304 304 304 303 303 302 302 302 303 303 301 299 297 296 295 292 289 288 288 288 288 289 288 287 289 290 291 291 291 291 291 291 292 292 292 292 293 293 294 294 294 294 294 295 296 297 298 298 297 294 289 284 278 274 269 264 260 257 254 253 252 252 253 254 255 256 257 257 258 259 260 260 262 264 265 266 267 268 268 268 267 264 261
300 303 305 306 306 307 306 306 305 304 303 303 300 294 291 293 294 293 290 287 286 287 286 287 288 289 290 291 291 293 294 294 293 293 292 292 292 292 292 292 292 291 291 290 291 292 293 295 297 298 299 298 294 288 282 275 269 263 258 254 251 249 248 248 249 250 250 251 251 252 252 254 256 257 259 260 262 263 264 265 266 267 268 268 267 266
304 307 309 309 310 310 311 311 307 304 301 300 296 293 292 292 292 291 290 287 287 287 288 288 288 290 294 294 294 294 294 294 293 293 292 292 292 292 292 291 290 289 288 288 288 289 291 293 295 297 298 297 293 286 278 270 264 259 255 252 250 249 248 248 248 248 248 248 248 248 249 251 254 256 259 262 263 265 265 266 267 267 268 269 269 268
314 317 319 318 315 312 312 312 308 304 299 298 297 296 296 292 290 289 288 285 286 288 290 290 289 291 293 294 294 294 293 293 293 292 292 291 291 292 292 291 290 289 288 288 288 289 291 292 294 295 296 294 289 282 274 267 261 257 255 253 252 251 251 250 250 249 249 249 249 250 252 255 257 260 264 266 269 270 271 272 272 272 272 272 271 270
323 325 326 323 317 312 311 309 306 302 298 298 297 295 293 290 289 290 288 287 288 290 291 291 290 290 291 292 292 292 292 293 293 292 292 291 292 292 291 290 289 289 288 288 288 289 290 292 293 294 293 291 286 280 273 267 262 258 256 255 254 253 253 253 252 252 251 252 253 256 258 261 265 268 271 273 275 277 278 278 278 278 277 277 276 274
327 326 323 320 315 310 309 307 303 300 298 297 297 295 293 291 292 293 293 293 293 294 294 295 295 295 294 293 293 293 293 294 294 293 293 293 295 295 291 290 289 288 289 288 288 289 290 291 292 292 291 288 283 278 273 268 263 260 258 256 255 254 254 254 254 255 255 257 259 262 264 268 271 274 276 278 279 281 282 282 282 282 281 280 279 277
323 321 318 315 311 307 306 304 302 301 299 297 297 297 298 297 297 297 297 297 297 298 298 299 300 300 300 300 300 299 298 298 297 295 295 297 298 298 293 290 289 288 288 288 288 288 289 290 290 290 288 285 282 277 273 268 264 261 258 256 255 254 253 254 254 255 257 259 262 265 267 270 273 275 277 279 281 282 283 284 284 283 282 281 280 278
317 316 314 310 308 306 305 303 301 300 299 297 297 298 298 298 299 299 299 300 301 301 302 303 303 303 304 306 305 304 303 302 301 300 299 301 303 301 295 292 289 288 287 286 287 287 288 288 289 288 287 284 281 277 273 268 264 260 257 254 253 252 252 252 253 254 256 258 261 264 267 270 272 274 276 278 280 282 284 284 284 284 283 281 280 278
316 316 312 310 308 306 305 302 301 300 300 300 301 300 299 299 301 302 303 304 304 303 304 304 305 307 308 309 309 309 307 306 304 303 302 305 306 304 298 294 290 287 285 285 285 286 287 288 288 287 285 283 280 276 273 268 263 258 254 253 251 250 250 251 252 253 255 258 260 263 266 269 271 274 276 279 281 283 284 285 284 284 283 282 280 279
317 316 312 310 308 306 304 301 300 300 301 302 303 302 301 302 303 303 304 305 305 305 305 306 307 309 311 312 314 313 311 310 308 306 305 307 308 307 302 296 291 287 285 284 285 286 287 287 287 286 284 282 280 276 273 268 264 258 255 252 251 249 250 251 252 254 257 259 261 264 267 270 273 276 279 282 284 285 285 285 285 284 283 282 281 280
316 315 313 311 309 306 303 302 302 303 304 305 304 304 305 306 306 307 307 307 307 308 308 308 309 311 313 315 316 315 314 312 311 309 308 309 311 312 307 300 295 291 288 286 285 285 286 285 284 283 282 281 280 278 274 270 265 261 257 254 253 252 252 253 255 257 259 261 264 267 270 273 277 280 282 284 285 285 285 284 284 284 283 282 282 281
313 312 311 309 307 305 304 303 303 305 307 308 308 308 309 310 309 309 310 311 312 312 312 312 313 314 315 317 317 317 316 314 311 309 310 311 314 315 311 305 300 296 294 292 288 285 283 282 281 281 281 281 281 279 276 272 268 263 259 257 255 255 255 256 258 260 262 265 268 271 274 277 280 282 283 284 284 284 284 283 283 283 282 282 281 281
308 307 306 304 303 302 302 303 304 306 309 310 311 311 311 311 311 310 312 314 315 316 317 316 315 316 319 319 319 319 317 315 312 309 309 310 313 314 313 307 303 301 298 297 292 286 282 279 278 279 280 281 281 279 276 271 267 263 260 257 256 256 257 258 260 264 267 270 273 276 278 280 281 282 282 282 282 282 282 283 283 283 282 282 281 281
302 301 300 299 298 298 299 300 302 305 309 311 312 311 311 310 310 311 313 315 316 316 316 315 314 316 320 320 319 319 317 315 312 310 309 310 311 313 312 308 306 304 302 299 293 287 283 279 277 277 278 279 278 276 273 269 265 262 260 258 258 259 260 263 266 269 272 274 276 278 279 279 280 280 280 281 281 281 282 282 282 282 282 282 281 281
299 298 296 295 295 295 296 297 299 303 306 308 308 307 305 305 306 308 309 311 312 312 311 310 311 314 317 317 316 316 316 315 312 309 309 310 311 312 311 310 307 305 303 301 296 288 282 278 275 275 276 276 275 273 270 268 265 263 263 262 263 265 267 269 271 273 275 276 276 277 277 277 278 278 279 279 280 281 281 282 282 282 282 281 281 280
300 299 297 296 295 295 295 296 297 299 301 302 302 301 301 302 304 306 307 308 309 309 308 308 310 312 313 313 313 313 315 316 314 311 309 310 311 312 312 311 310 307 304 303 298 291 283 277 273 273 273 273 272 271 269 268 267 266 266 267 268 269 270 271 272 273 273 273 274 274 275 276 276 277 278 278 279 280 280 280 281 281 280 280 279 279
299 299 298 297 297 296 296 297 298 299 300 299 298 296 298 301 304 306 307 307 306 304 303 304 305 308 309 310 310 311 315 317 316 313 311 310 310 311 312 312 311 310 307 303 298 291 284 278 274 271 271 270 269 269 267 266 266 266 266 266 266 267 268 268 269 269 270 271 272 273 274 274 275 276 277 277 278 278 279 279 279 278 278 277 277 276
296 296 296 296 296 296 296 297 298 300 300 299 297 295 296 298 301 302 302 302 302 300 299 300 302 303 305 305 306 308 313 316 316 314 311 310 309 309 311 312 313 312 309 304 296 289 287 279 274 272 270 268 267 265 263 262 262 262 262 263 263 264 265 265 266 267 268 269 271 272 273 274 275 275 276 276 276 277 277 276 276 276 276 275 275 274
292 292 291 291 291 292 293 295 297 298 299 298 297 295 294 295 296 297 299 300 299 297 297 297 298 299 300 302 303 305 311 313 314 313 312 309 309 309 311 313 314 315 314 310 305 300 295 282 275 273 270 267 264 261 259 258 258 258 259 260 261 262 263 264 265 267 268 269 270 271 272 273 274 274 274 274 274 275 274 275 275 275 274 274 274 274
288 286 285 284 284 286 288 291 294 296 297 297 296 294 293 293 293 294 295 296 296 295 295 295 295 295 296 298 299 302 307 310 313 314 312 309 308 310 313 314 315 317 317 316 315 312 306 291 279 275 274 270 266 262 260 259 259 259 260 261 262 263 265 266 267 268 269 270 271 272 273 273 273 273 273 274 274 274 274 274 274 274 275 275 275 276
284 282 281 280 281 283 285 288 291 293 294 294 294 292 292 291 292 292 293 294 294 295 295 294 294 294 295 296 297 299 304 309 314 316 314 310 309 311 314 315 316 317 318 317 315 312 307 299 288 278 273 268 266 266 267 267 267 267 267 267 267 268 268 269 270 270 271 272 273 273 274 274 274 274 274 274 274 274 274 274 275 275 276 276 277 277
285 283 282 282 282 283 285 287 289 291 291 292 292 291 291 292 292 293 294 294 295 295 296 295 295 295 297 298 299 302 306 311 315 317 316 312 310 312 314 315 316 317 317 316 313 309 305 302 297 288 277 268 263 262 265 268 270 272 272 272 271 271 271 271 272 273 273 274 274 275 275 275 275 275 274 274 274 274 274 274 275 275 275 275 276 277
288 286 285 285 284 285 286 288 289 290 291 291 290 291 291 293 294 295 297 297 296 296 296 299 299 298 299 300 302 305 309 313 316 316 316 313 311 311 313 314 315 316 316 315 313 310 307 305 302 299 292 282 274 270 269 269 270 271 272 271 271 270 270 271 272 273 274 275 275 275 274 274 274 274 274 274 274 274 274 274 274 274 274 274 275 275
289 287 287 286 285 285 286 288 289 290 290 291 291 292 293 294 296 298 299 299 297 296 295 296 298 300 301 303 304 307 310 313 314 313 314 311 310 310 310 311 312 314 314 313 312 311 309 307 306 304 301 296 291 286 283 280 277 274 272 271 269 269 269 270 271 273 274 275 275 275 275 275 275 275 275 275 274 274 274 273 273 272 272 273 273 274
291 290 288 287 286 286 287 287 289 290 291 291 292 293 295 296 297 298 298 298 297 295 294 294 295 297 300 303 305 308 312 313 312 311 311 309 309 308 307 308 309 311 311 311 310 309 309 307 306 305 304 302 299 296 294 291 288 282 277 273 270 270 272 273 275 277 278 278 278 278 278 278 278 278 277 276 276 275 275 274 274 273 273 273 273 274
292 291 289 287 287 287 288 288 288 290 291 292 293 294 295 295 296 297 297 296 295 294 293 293 294 295 298 300 303 306 309 310 310 309 308 307 306 305 304 305 306 307 307 307 308 307 307 306 305 305 304 304 302 302 301 299 296 291 285 278 274 273 275 279 281 283 284 284 285 285 285 285 284 283 282 281 280 279 278 277 276 275 275 274 274 274
292 290 289 287 287 288 289 289 289 290 292 293 293 293 293 293 294 295 296 295 293 292 292 293 294 297 299 301 303 304 306 307 306 306 305 304 303 302 300 300 301 301 302 302 303 303 304 304 304 304 304 303 302 303 303 303 301 298 293 287 282 280 281 284 287 289 291 292 293 293 293 292 291 290 289 287 286 285 284 283 281 279 278 277 276 275
292 289 287 287 287 288 289 289 290 291 291 290 289 289 290 290 291 292 292 292 291 291 292 294 296 298 301 302 304 304 304 304 304 303 302 301 300 298 297 296 295 296 297 297 297 298 299 300 301 301 302 302 302 301 302 302 302 301 297 292 287 285 287 290 294 297 298 299 299 300 300 298 297 295 294 292 291 290 289 287 285 283 281 280 278 277
291 287 286 286 287 288 289 289 290 289 287 285 284 285 285 286 286 287 288 289 289 291 292 294 296 299 300 302 303 304 304 304 303 303 301 300 298 297 295 294 293 293 294 293 293 294 295 297 297 297 298 300 300 300 300 300 301 302 301 299 297 296 296 298 300 302 302 302 303 303 303 302 300 298 296 295 294 293 291 290 287 285 282 281 280 279
289 286 285 285 287 288 288 288 286 284 282 281 280 281 281 281 282 283 284 286 289 290 292 294 296 299 301 304 306 307 307 306 305 304 302 300 299 297 296 295 295 294 294 294 293 293 294 295 296 297 297 298 298 298 297 298 300 303 305 305 304 302 301 302 304 305 305 305 305 305 305 303 301 298 296 295 294 293 291 290 288 286 283 282 281 280
287 285 284 284 285 286 286 284 283 280 279 279 279 279 279 280 280 281 282 284 286 290 292 295 298 301 306 309 310 310 309 307 306 305 303 302 301 300 299 298 297 297 297 297 297 296 296 296 296 298 299 300 300 299 298 298 300 304 307 308 307 304 301 302 305 307 308 307 307 307 306 305 302 300 298 296 294 292 290 288 287 285 284 283 282 281
286 284 283 283 283 283 283 283 282 281 279 279 277 277 277 278 279 280 280 281 284 288 292 295 299 302 306 308 309 309 308 307 306 306 305 304 303 303 302 301 300 300 301 301 301 300 300 299 299 299 300 300 300 300 299 300 303 306 308 310 309 308 306 306 307 308 308 307 307 307 307 305 304 302 300 297 295 293 291 288 287 286 285 284 283 282
285 283 282 281 282 282 282 281 280 279 277 276 274 274 275 275 277 278 280 281 284 287 292 296 299 303 305 308 310 312 312 311 310 310 310 310 310 309 308 308 308 308 307 306 305 303 303 303 302 302 303 301 300 299 300 302 305 308 309 309 308 307 305 305 306 306 306 305 305 306 307 306 305 302 301 299 297 296 294 292 290 288 288 287 286 285
283 281 281 280 280 279 277 276 275 275 274 273 272 272 272 272 274 276 279 282 286 290 294 299 303 306 309 313 315 317 318 317 317 318 318 318 318 317 317 317 317 316 315 312 309 308 306 304 304 304 303 301 300 300 301 304 307 308 308 308 306 303 301 302 303 304 303 303 304 305 306 306 305 304 302 301 300 300 299 297 295 294 292 291 290 289
281 280 278 278 277 277 276 276 275 274 272 270 269 269 269 270 272 275 279 283 288 293 298 303 306 309 313 316 319 321 320 320 320 320 321 321 321 321 320 320 320 319 318 315 314 311 308 305 305 304 303 301 300 300 302 305 307 308 308 307 305 302 300 300 302 303 303 303 304 305 306 306 306 305 304 303 302 301 300 299 298 297 296 295 294 293
283 281 279 278 278 278 278 278 277 275 272 270 267 266 267 268 271 275 279 284 289 295 300 304 307 309 312 316 319 321 321 321 321 323 324 325 324 324 323 322 321 320 318 317 315 313 310 308 306 303 301 299 299 301 304 306 307 307 307 307 305 303 301 301 302 303 304 303 305 306 307 307 307 306 305 304 302 300 299 298 298 298 298 297 297 297
284 282 281 279 278 277 277 276 276 275 272 270 266 265 266 268 271 274 279 285 291 296 300 303 305 307 310 313 316 318 321 323 325 328 331 332 333 333 332 330 327 323 319 317 315 312 310 307 305 302 300 299 299 302 305 306 307 307 306 306 305 304 303 303 304 305 305 305 306 307 308 308 308 307 306 304 302 299 298 298 298 297 298 298 299 299
282 282 281 279 277 276 275 275 275 274 272 270 267 265 265 268 271 275 280 286 292 296 299 301 303 305 307 309 311 316 320 325 330 335 339 341 341 341 339 337 333 329 324 320 316 312 310 307 305 304 303 303 304 305 308 309 309 309 307 306 306 306 306 306 307 308 309 309 308 308 308 308 307 307 306 305 303 300 298 298 297 297 297 299 299 299
281 280 279 279 278 276 275 275 274 273 272 270 268 267 266 268 271 276 282 288 293 296 298 299 300 302 304 305 309 316 324 330 337 342 345 346 346 345 342 339 336 333 330 325 321 318 315 312 310 308 308 309 310 310 311 311 311 311 309 309 309 310 310 310 311 312 313 312 311 310 309 308 308 307 306 305 303 301 300 298 297 297 298 298 299 299
280 279 279 279 278 277 276 275 274 273 272 271 270 269 269 270 273 278 284 289 292 294 295 296 297 299 301 304 311 320 330 336 340 343 345 346 345 343 341 339 338 336 333 329 326 323 321 318 315 313 312 313 314 313 312 311 311 311 311 311 312 312 312 313 314 316 316 314 313 312 311 311 310 309 308 305 303 301 300 299 298 298 298 298 298 298